Location: Sungai Bukit
(2.6167°N, 113.4833°E)
Time: 05:32:53
(UTC+00:00)

Daily predictions for brighter satellites

Satellite Brightness Start Highest point End
(mag) Time Altitude Azimuth Time Altitude Azimuth Time Altitude Azimuth
Okean 1-7 3.1 10:36:12 10° N 10:40:18 51° E 10:44:26 10° SSE
Cosmos 1842 3.6 10:36:41 10° NNE 10:40:20 41° E 10:44:00 10° SSE
Lacrosse 5 rocket 3.4 10:37:27 10° WNW 10:40:34 26° WSW 10:43:38 10° S
ATLAS 2A CENTAUR R/B 1.4 10:39:48 10° NW 10:44:58 59° NNE 10:48:01 10° ESE
SMAP 4.5 10:40:36 10° S 10:45:01 44° WSW 10:49:26 10° NNW
Cosmos 1707 3.9 10:42:49 10° NE 10:45:42 21° E 10:48:36 10° SE
ARGOS Delta rocket 3.8 10:43:10 10° NNE 10:48:12 76° E 10:52:57 10° S
Radarsat Rocket 4.3 10:44:08 10° SSE 10:50:33 75° ENE 10:57:50 10° N
Meteor 1-23 Rocket 4.2 10:46:40 10° N 10:52:21 85° E 10:57:58 10° S
Cosmos 2242 Rocket 3.8 10:52:34 10° NNE 10:56:45 44° E 11:00:58 10° SSE
ARIANE 5 DEB (SYLDA) 3.9 10:57:52 10° W 11:00:37 72° N 11:05:13 15° E
Cosmos 1850 Rocket 4.0 10:55:41 10° SSW 11:00:51 89° W 11:06:01 10° NNE
Cosmos 1634 Rocket 4.4 10:55:13 10° NNE 11:00:55 39° E 11:06:40 10° SSE
Meteor 2-15 4.4 10:57:38 10° N 11:03:44 71° E 11:09:51 10° S
YAOGAN 1 3.7 11:01:37 10° SE 11:04:54 21° ENE 11:08:10 10° NNE
Cosmos 1805 3.1 11:02:25 10° S 11:06:17 70° E 11:10:06 10° N
CZ-4 R/B 4.4 11:03:02 10° SSE 11:07:07 64° ENE 11:11:10 10° N
CZ-3C R/B 4.2 11:03:54 10° WNW 11:08:45 14° NNW 11:11:20 10° N
SWIFT 4.3 11:07:16 10° SSW 11:09:59 16° SSE 11:11:43 13° SE
Helios 1B 4.4 11:06:50 10° NNE 11:11:07 72° ESE 11:15:25 10° S
BREEZE-M DEB (TANK) 3.7 11:13:21 10° S 11:14:48 20° SE 11:14:48 20° SE
Cosmos 1766 3.8 11:11:50 10° SSE 11:15:19 33° E 11:18:48 10° NNE
ARIANE 5 R/B 3.1 11:10:13 10° W 11:15:26 70° S 11:17:13 26° E
PAYLOAD B 4.2 11:10:42 10° SSE 11:16:12 64° ENE 11:21:39 10° N
Timation 1 Rocket 4.3 11:10:16 10° NNW 11:16:13 87° WSW 11:22:11 10° SSE
Meteor 2-14 Rocket 4.4 11:12:06 10° S 11:18:09 65° E 11:24:08 10° NNE
CZ-4 R/B 3.7 11:22:47 11° NNE 11:22:47 11° NNE 11:22:58 10° NNE
GPS 2-17 Rocket1 4.0 11:17:17 10° W 11:21:18 37° NNW 11:23:53 19° NE
PSLV R/B 3.6 11:18:22 10° SSE 11:22:15 89° E 11:26:02 10° N
CZ-4B R/B 3.3 11:17:17 10° SSE 11:22:18 45° ENE 11:27:19 10° N
Cosmos 1626 2.3 11:20:01 10° NNE 11:23:28 44° E 11:26:56 10° SSE
Meteor 2-15 Rocket 4.4 11:17:53 10° N 11:24:00 81° E 11:30:10 10° S
Cosmos 489 Rocket 4.4 11:19:16 10° S 11:25:36 78° ESE 11:31:56 10° NNE
Cosmos 2322 Rocket 3.3 11:21:50 10° SSE 11:25:36 24° ESE 11:25:36 24° ESE
Meteor 2-21 Rocket 4.5 11:24:53 10° S 11:30:50 54° E 11:36:43 10° NNE
Spelda 30 3.6 11:29:12 10° SW 11:31:17 26° S 11:31:26 26° SSE
IRIDIUM 103 4.3 11:27:26 10° S 11:32:34 60° E 11:37:41 10° N
ATLAS 3B R/B 2.9 11:27:11 10° NNW 11:34:54 84° ENE 11:42:28 10° SSE
Okean 2 3.8 11:32:26 10° N 11:35:32 41° NE 11:35:32 41° NE
Lacrosse 5 3.8 11:33:41 10° NNE 11:34:56 14° NNE 11:34:56 14° NNE
Ariane 3 Deb 3.9 11:31:14 10° WSW 11:42:58 40° S 11:44:33 30° SSE
Cosmos 2227 Rocket 3.5 11:38:48 10° NNE 11:41:21 23° NE 11:41:21 23° NE
Nadezhda 4 Rocket 3.9 11:40:18 10° S 11:46:36 90° NNE 11:52:55 10° N
Landsat 5 4.4 11:45:46 10° N 11:50:04 50° WNW 11:54:16 10° SSW
Meteor 2-16 Rocket 4.3 11:44:23 10° S 11:50:26 70° E 11:56:30 10° N
ARIANE 5 R/B 2.6 11:45:28 10° WSW 11:50:31 37° SSW 11:50:31 37° SSW
IRIDIUM 106 4.3 11:45:36 10° S 11:50:49 81° W 11:56:01 10° N
Meteor 1-15 Rocket 4.1 11:45:24 10° S 11:51:07 76° E 11:56:43 10° N
USA 267 3.6 11:50:35 41° ENE 11:51:11 42° NE 11:57:16 10° NNW
SL-16 R/B 2.0 11:45:36 10° S 11:51:15 75° ESE 11:53:46 34° NNE
